This demonstration page uses our WeatherBlox Daily Observations layout. Learn more.

Hourly Observations for August 3, 2017

Temp ( °F °C ) Dew Point ( °F °C ) Humidity (%) Winds ( mph kmh ) Pressure ( in mb ) Visibility ( mi km ) Precip ( " mm )
12:15 am 00:15 Cloudy with Heavy Thunderstorms 68 19.8 64 17.9 89 89 N 25 41 30.06 1018 2.5 4.02336 0.26 6.604
12:35 am 00:35 Cloudy with Heavy Thunderstorms 62 16.9 60 15.5 92 92 ESE 20 31 30.09 1019 1 1.609344 1.06 26.924
12:55 am 00:55 Windy with Storms Likely 63 17.2 60 15.8 92 92 SE 22 35 30.06 1018 10 16.09344 1.1 27.94
1:15 am 01:15 Cloudy with Nearby Thunderstorms 64 17.6 60 15.3 86 86 SE 14 22 30.06 1018 10 16.09344 0 0
1:35 am 01:35 Mostly Cloudy 63 17.2 59 15.1 88 88 ESE 5 7 30.06 1018 10 16.09344 0 0
1:55 am 01:55 Mostly Cloudy 63 17 60 15.5 91 91 N 3 6 30.09 1019 10 16.09344 0 0
2:15 am 02:15 Cloudy 63 17.2 60 15.4 89 89 Calm 30.06 1018 10 16.09344 0 0
2:35 am 02:35 Mostly Cloudy 63 17.1 60 15.6 91 91 ENE 3 6 30.09 1019 10 16.09344 0 0
2:55 am 02:55 Partly Cloudy 62 16.6 60 15.6 94 94 NNW 7 11 30.09 1019 10 16.09344 0 0
3:15 am 03:15 Partly Cloudy 63 17.1 61 15.9 93 93 NNW 9 15 30.09 1019 10 16.09344 0 0
3:35 am 03:35 Partly Cloudy 63 17.3 61 16.1 93 93 NW 6 9 30.06 1018 10 16.09344 0 0
3:55 am 03:55 Clear 63 17.2 60 15.7 91 91 N 9 15 30.06 1018 10 16.09344 0 0
4:15 am 04:15 Clear 62 16.7 59 15.2 91 91 NNW 8 13 30.09 1019 10 16.09344 0 0
4:35 am 04:35 Clear 62 16.5 58 14.7 89 89 N 10 17 30.09 1019 10 16.09344 0 0
4:55 am 04:55 Clear 61 15.9 57 14 89 89 N 13 20 30.09 1019 10 16.09344 0 0
5:15 am 05:15 Mostly Cloudy 60 15.8 56 13.6 87 87 N 12 19 30.09 1019 10 16.09344 0 0
5:35 am 05:35 Cloudy 59 15.2 55 13 87 87 N 12 19 30.09 1019 10 16.09344 0 0
5:55 am 05:55 Partly Cloudy 58 14.5 55 12.7 89 89 N 8 13 30.12 1020 10 16.09344 0 0
6:15 am 06:15 Clear 58 14.3 55 12.7 90 90 N 8 13 30.12 1020 10 16.09344 0 0
6:35 am 06:35 Clear 57 14 54 12.3 90 90 N 9 15 30.12 1020 10 16.09344 0 0
6:55 am 06:55 Sunny 57 13.7 54 12.3 91 91 N 8 13 30.15 1021 10 16.09344 0 0
7:15 am 07:15 Sunny 57 13.7 54 12.3 91 91 NNW 7 11 30.15 1021 10 16.09344 0 0
7:35 am 07:35 Sunny 57 13.8 54 12.4 91 91 N 6 9 30.15 1021 10 16.09344 0 0
7:55 am 07:55 Sunny 57 14.1 55 12.5 90 90 N 7 11 30.12 1020 10 16.09344 0 0
8:15 am 08:15 Sunny 58 14.6 55 12.5 87 87 N 7 11 30.12 1020 10 16.09344 0 0
8:35 am 08:35 Sunny 59 15 55 12.5 85 85 N 10 17 30.12 1020 10 16.09344 0 0
8:55 am 08:55 Sunny 60 15.5 54 12 80 80 N 10 17 30.12 1020 10 16.09344 0 0
9:15 am 09:15 Sunny 61 16 54 12.1 78 78 N 15 24 30.12 1020 10 16.09344 0 0
9:35 am 09:35 Sunny 61 16.3 54 12 76 76 N 14 22 30.12 1020 10 16.09344 0 0
9:55 am 09:55 Sunny 62 16.6 54 12.2 75 75 N 12 19 30.15 1021 10 16.09344 0 0
10:15 am 10:15 Sunny 63 17 54 12.1 73 73 N 15 24 30.15 1021 10 16.09344 0 0
10:35 am 10:35 Partly Cloudy 64 17.7 54 12.2 70 70 N 13 20 30.15 1021 10 16.09344 0 0
11:15 am 11:15 Partly Cloudy 66 18.8 54 12 65 65 N 10 17 30.12 1020 10 16.09344 0 0
11:35 am 11:35 Partly Cloudy 66 19.1 54 12 64 64 N 8 13 30.12 1020 10 16.09344 0 0
11:55 am 11:55 Partly Cloudy 66 19 53 11.9 64 64 N 12 19 30.12 1020 10 16.09344 0 0
12:15 pm 12:15 Partly Cloudy 67 19.4 53 11.9 62 62 NNW 9 15 30.12 1020 10 16.09344 0 0
12:35 pm 12:35 Partly Cloudy 67 19.5 53 11.4 60 60 NNW 9 15 30.12 1020 10 16.09344 0 0
12:55 pm 12:55 Partly Cloudy 68 20 53 11.7 59 59 NNW 10 17 30.12 1020 10 16.09344 0 0
1:15 pm 13:15 Partly Cloudy 68 20.1 54 12.1 60 60 NNW 7 11 30.12 1020 10 16.09344 0 0
1:35 pm 13:35 Sunny 69 20.6 52 11 54 54 NNW 8 13 30.12 1020 10 16.09344 0 0
1:55 pm 13:55 Sunny 68 20.1 52 11.3 57 57 NW 6 9 30.12 1020 10 16.09344 0 0
2:15 pm 14:15 Sunny 69 20.5 53 11.6 57 57 NW 6 9 30.09 1019 10 16.09344 0 0
2:35 pm 14:35 Sunny 69 20.6 55 12.9 61 61 NNW 3 6 30.09 1019 10 16.09344 0 0
2:55 pm 14:55 Sunny 71 21.5 54 12 55 55 NW 9 15 30.06 1018 10 16.09344 0 0
3:15 pm 15:15 Partly Cloudy 70 21.1 52 11.1 53 53 N 5 7 30.03 1017 10 16.09344 0 0
3:35 pm 15:35 Partly Cloudy 70 21.2 53 11.8 55 55 Calm 30.06 1018 10 16.09344 0 0
3:55 pm 15:55 Partly Cloudy 72 22.1 54 12 53 53 NW 5 7 30.03 1017 10 16.09344 0 0
4:15 pm 16:15 Sunny 73 22.6 51 10.4 46 46 N 8 13 30.03 1017 10 16.09344 0 0
4:35 pm 16:35 Partly Cloudy 72 22.3 50 10.2 46 46 N 7 11 30.03 1017 10 16.09344 0 0
4:55 pm 16:55 Partly Cloudy 73 23 50 9.8 43 43 N 6 9 30.03 1017 10 16.09344 0 0
5:15 pm 17:15 Partly Cloudy 73 22.7 50 9.9 44 44 N 10 17 30.03 1017 10 16.09344 0 0
5:35 pm 17:35 Partly Cloudy 73 23 49 9.3 42 42 N 8 13 30.03 1017 10 16.09344 0 0
5:55 pm 17:55 Partly Cloudy 73 22.7 51 10.4 46 46 N 13 20 30.03 1017 10 16.09344 0 0
6:15 pm 18:15 Partly Cloudy 72 22.2 51 10.5 48 48 N 8 13 30.03 1017 10 16.09344 0 0
6:35 pm 18:35 Partly Cloudy 71 21.4 52 10.9 51 51 NNE 16 26 30.03 1017 10 16.09344 0 0
6:55 pm 18:55 Sunny 69 20.5 52 11.1 55 55 NNE 13 20 30.06 1018 10 16.09344 0 0
7:15 pm 19:15 Sunny 68 19.9 52 11 57 57 NNE 14 22 30.06 1018 10 16.09344 0 0
7:35 pm 19:35 Sunny 66 19 50 10 56 56 NNE 15 24 30.09 1019 10 16.09344 0 0
7:55 pm 19:55 Sunny 65 18.2 50 10.2 60 60 NNE 10 17 30.09 1019 10 16.09344 0 0
8:15 pm 20:15 Sunny 63 17.3 50 10.2 63 63 NNE 7 11 30.12 1020 10 16.09344 0 0
8:35 pm 20:35 Sunny 62 16.6 51 10.5 67 67 N 6 9 30.12 1020 10 16.09344 0 0
8:55 pm 20:55 Clear 60 15.6 52 11.2 75 75 NNE 6 9 30.12 1020 10 16.09344 0 0
9:15 pm 21:15 Mostly Cloudy 59 15.1 53 11.5 79 79 N 6 9 30.15 1021 10 16.09344 0 0
9:35 pm 21:35 Partly Cloudy 59 14.9 53 11.5 80 80 N 5 7 30.15 1021 10 16.09344 0 0
9:55 pm 21:55 Clear 58 14.2 53 11.8 86 86 N 6 9 30.18 1022 10 16.09344 0 0
10:15 pm 22:15 Clear 57 14 52 11.3 84 84 NNE 6 9 30.18 1022 10 16.09344 0 0
10:35 pm 22:35 Clear 56 13.6 52 11.3 86 86 NNE 6 9 30.18 1022 10 16.09344 0 0
10:55 pm 22:55 Clear 56 13.2 52 11.1 87 87 NNE 3 6 30.18 1022 10 16.09344 0 0
11:15 pm 23:15 Clear 55 13 52 11.2 89 89 NNE 5 7 30.18 1022 10 16.09344 0 0
11:35 pm 23:35 Mostly Cloudy 55 12.8 52 11.2 90 90 NNE 3 6 30.18 1022 10 16.09344 0 0
11:55 pm 23:55 Partly Cloudy 55 12.5 52 11.1 91 91 NNE 3 6 30.18 1022 10 16.09344 0 0

Powered by AerisWeather